Regional Weather Roundup
Issued by NWS

Home | Current Version | Previous Version | Graphics & Text | Print | Product List | Glossary On
Versions: 1 2 3 4 5 6 7 8 9 10 11 12 13 14 15 16 17 18 19 20 21 22 23 24 25 26 27 28 29 30 31 32 33 34 35 36 37 38 39 40 41 42 43 44 45 46 47 48 49 50
000
ASUS43 KIND 011009
RWRIN

WEATHER ROUNDUP FOR INDIANA
NATIONAL WEATHER SERVICE INDIANAPOLIS IN
600 AM EDT WED OCT 01 2014

NOTE: "FAIR" INDICATES FEW OR NO CLOUDS BELOW 12,000 FEET WITH NO
SIGNIFICANT WEATHER AND/OR OBSTRUCTIONS TO VISIBILITY.

* - STATION DOES NOT REPORT WEATHER SUCH AS PRECIPITATION OR FOG.

+ - STATION NOT QUALITY CONTROLLED BY THE NATIONAL WEATHER SERVICE.
    USE DATA WITH CAUTION...ESPECIALLY DEWPOINT AND RELATIVE
    HUMIDITY OBSERVATIONS.

INZ001>003-010>013-019-020-011100-
NORTHWEST INDIANA

CITY           SKY/WX    TMP DP  RH WIND       PRES   REMARKS
GARY /AIRPORT/ PTCLDY    46  45  93 E7        30.02S
KNOX *+          N/A     40  38  94 CALM      30.00F VSB 1/4
LA PORTE +     CLOUDY    54  52  93 CALM      30.02R
MICHIGAN CITY+ CLOUDY    50  50 100 CALM      30.02S
MONTICELLO +   CLEAR     45  45  99 CALM      30.00S
RENSSELAER +   CLEAR     41  41 100 NE3       30.00F
VALPARAISO     CLEAR     45  44  97 CALM      30.02R

$$

LMZ046-743>745-011100-
SOUTHERN LAKE MICHIGAN

STATION/POSITION TIME  TEMP WIND        PRES
                       AIR  DIR/SP/G
                 (UTC) (F)  (DEG/KT/KT) (MB)
MICHIGAN CITY    1000   53   70/  4/  4   N/A

$$

INZ004-005-014>016-021>024-011100-
NORTH CENTRAL INDIANA

CITY           SKY/WX    TMP DP  RH WIND       PRES   REMARKS
LOGANSPORT +   CLEAR     41  39  93 CALM      30.02R FOG
PERU/GRISSOM   CLEAR     45  45 100 E6        30.00S
ROCHESTER +    CLEAR     45  45 100 E5        30.02S
SOUTH BEND     NOT AVBL
WARSAW +       CLEAR     48  46  93 CALM      30.02R

$$

INZ006>009-017-018-025>027-011100-
NORTHEAST INDIANA

CITY           SKY/WX    TMP DP  RH WIND       PRES   REMARKS
ANGOLA *+      CLOUDY    52  46  82 E3        30.02S
AUBURN +       CLEAR     45  43  93 CALM      30.02S FOG
FORT WAYNE     PTCLDY    46  45  96 E3        30.03R FOG
HUNTINGTON +   MOCLDY    47  47  99 CALM      30.01S FOG

$$

INZ028-029-035-036-043>045-051>053-011100-
WEST CENTRAL INDIANA

CITY           SKY/WX    TMP DP  RH WIND       PRES   REMARKS
GREENCASTLE +  CLEAR     48  46  93 CALM      29.99S
LAFAYETTE      CLEAR     45  44  97 CALM      30.00R
TERRE HAUTE    CLEAR     51  48  89 E3        29.97S

$$

INZ030>032-037>040-046>048-054>057-064-065-011100-
CENTRAL INDIANA

CITY           SKY/WX    TMP DP  RH WIND       PRES   REMARKS
CP ATTERBURY + CLEAR     45  43  93 CALM      30.00S FOG
FRANKFORT +    CLEAR    N/A N/A N/A E3        30.01R
INDIANAPOLIS   CLEAR     50  45  83 E5        29.99S
-EAGLE CREEK   CLEAR     48  44  86 CALM      29.99R
KOKOMO *+      CLEAR     41  37  87 E5        30.01S
MARION +       MOCLDY    47  47  99 E5        30.01S FOG
MT COMFORT *+  CLEAR     41 N/A N/A CALM      30.00R
SHELBYVILLE    CLEAR     46  42  86 CALM      29.99R
ZIONSVILLE +   CLEAR     43  40  91 CALM      30.00R FOG

$$

INZ033-034-041-042-049-050-058-059-011100-
EAST CENTRAL INDIANA

CITY           SKY/WX    TMP DP  RH WIND       PRES   REMARKS
MUNCIE         PTCLDY    42  41  96 E5        30.00S FOG

$$

INZ060-061-067>069-081>083-085>088-011100-
SOUTHWEST INDIANA

CITY           SKY/WX    TMP DP  RH WIND       PRES   REMARKS
EVANSVILLE     CLEAR     59  57  93 NE3       29.94S
WASHINGTON +   CLEAR     55  55  99 CALM      29.95S

$$

INZ062-063-066-070>080-084-089>092-011100-
SOUTH CENTRAL AND SOUTHEAST INDIANA

CITY           SKY/WX    TMP DP  RH WIND       PRES   REMARKS
BEDFORD +      CLEAR     52  48  87 CALM      29.97S
BLOOMINGTON    CLEAR     52  48  86 E5        29.97S
SEYMOUR +      CLEAR     52  50  93 NE3       29.98

$$



USA.gov is the U.S. government's official web portal to all federal, state and local government web resources and services.